Weather History for Frederick, MD

Change the Weather History Date:

Friday, April 11, 2014

  Actual Average (KHGR) Record (KHGR)
Temperature  
Mean Temperature 66 °F -  
Max Temperature 80 °F 61 °F - (0)
Min Temperature 53 °F 41 °F - (0)
Cooling Degree Days 2    
Growing Degree Days 16 (Base 50)    
Moisture  
Dew Point 46 °F    
Average Humidity 62    
Maximum Humidity 100    
Minimum Humidity 28    
Precipitation  
Precipitation 0.00 in - - ()
Sea Level Pressure  
Sea Level Pressure 30.03 in    
Wind  
Wind Speed 7 mph (SSW)    
Max Wind Speed 15 mph    
Max Gust Speed 22 mph    
Visibility 10 miles    
Events Rain    
T = Trace of Precipitation, MM = Missing Value Source: NWS Daily Summary

Daily Weather History Graph

Daily Weather History Graph

Search for Another Location

Airport:

Trip Planner

Search our weather history database for the weather conditions in past years. The results will help you decide how hot, cold, wet, or windy it might be!

Date:

Astronomy

Apr. 11, 2014 Rise Set
Actual Time 6:38 AM EDT 7:43 PM EDT
Civil Twilight 6:10 AM EDT 8:10 PM EDT
Nautical Twilight 5:38 AM EDT 8:43 PM EDT
Astronomical Twilight 5:03 AM EDT 9:18 PM EDT
Moon 4:22 PM EDT (4/11) 4:31 AM EDT (4/11)
Length of Visible Light 14h 00m
Length of Day
13h 04m
Waxing Gibbous, 87% of the Moon is Illuminated
Apr 11
Waxing Gibbous
Apr 15
Full
Apr 22
Last Quarter
Apr 29
New
May 6
First Quarter

Hourly Weather History & Observations

Time (EDT) Temp. Dew Point Humidity Pressure Visibility Wind Dir Wind Speed Gust Speed Precip Events Conditions
12:15 AM 60.8 °F 37.4 °F 42% 30.02 in 10.0 mi South 12.7 mph 17.3 mph N/A   Clear
12:55 AM 62.6 °F 37.4 °F 39% 30.02 in 10.0 mi South 10.4 mph - N/A   Clear
1:15 AM 62.6 °F 37.4 °F 39% 30.01 in 10.0 mi South 10.4 mph - N/A   Clear
1:35 AM 60.8 °F 37.4 °F 42% 30.00 in 10.0 mi South 8.1 mph - N/A   Clear
1:55 AM 60.8 °F 37.4 °F 42% 30.00 in 10.0 mi South 8.1 mph - N/A   Clear
2:15 AM 60.8 °F 37.4 °F 42% 29.99 in 10.0 mi South 6.9 mph - N/A   Clear
2:35 AM 59.0 °F 37.4 °F 45% 29.99 in 10.0 mi South 8.1 mph - N/A   Clear
2:55 AM 59.0 °F 39.2 °F 48% 29.99 in 10.0 mi SSW 8.1 mph - N/A   Clear
3:15 AM 55.4 °F 41.0 °F 58% 30.00 in 10.0 mi SSW 5.8 mph - N/A   Clear
3:35 AM 55.4 °F 41.0 °F 58% 30.00 in 10.0 mi SSW 5.8 mph - N/A   Clear
3:55 AM 53.6 °F 41.0 °F 62% 30.01 in 10.0 mi SSW 4.6 mph - N/A   Clear
4:15 AM 55.4 °F 41.0 °F 58% 30.02 in 10.0 mi SSW 4.6 mph - N/A   Clear
4:35 AM 53.6 °F 41.0 °F 62% 30.02 in 10.0 mi Calm Calm - N/A   Clear
4:55 AM 55.4 °F 41.0 °F 58% 30.02 in 10.0 mi SSW 3.5 mph - N/A   Clear
5:15 AM 57.2 °F 39.2 °F 51% 30.03 in 10.0 mi Calm Calm - N/A   Clear
5:35 AM 57.2 °F 39.2 °F 51% 30.04 in 10.0 mi Calm Calm - N/A   Clear
5:55 AM 57.2 °F 39.2 °F 51% 30.04 in 10.0 mi Calm Calm - N/A   Clear
6:15 AM 53.6 °F 41.0 °F 62% 30.04 in 10.0 mi South 3.5 mph - N/A   Clear
6:35 AM 55.4 °F 41.0 °F 58% 30.04 in 10.0 mi South 3.5 mph - N/A   Clear
6:45 AM 57.2 °F 41.0 °F 55% 30.05 in 10.0 mi Calm Calm - N/A   Mostly Cloudy
7:50 AM 60.8 °F 42.8 °F 52% 30.06 in 10.0 mi Calm Calm - N/A   Clear
8:46 AM 62.6 °F 42.8 °F 48% 30.08 in 10.0 mi SSW 6.9 mph - N/A   Mostly Cloudy
9:45 AM 64.4 °F 42.8 °F 45% 30.08 in 10.0 mi SSW 6.9 mph - N/A   Clear
10:45 AM 68.0 °F 42.8 °F 40% 30.07 in 10.0 mi SSW 9.2 mph - N/A   Clear
11:45 AM 71.6 °F 44.6 °F 38% 30.05 in 10.0 mi SW 9.2 mph - N/A   Clear
12:45 PM 73.4 °F 44.6 °F 36% 30.03 in 10.0 mi WSW 12.7 mph - N/A   Scattered Clouds
1:55 PM 78.8 °F 44.6 °F 30% 29.99 in 10.0 mi SW 8.1 mph - N/A   Clear
2:45 PM 80.6 °F 46.4 °F 30% 29.97 in 10.0 mi SW 15.0 mph 21.9 mph N/A   Clear
3:45 PM 80.6 °F 44.6 °F 28% 29.94 in 10.0 mi SSW 6.9 mph - N/A   Clear
4:45 PM 69.8 °F 51.8 °F 53% 29.97 in 10.0 mi North 11.5 mph 18.4 mph N/A   Overcast
5:48 PM 66.2 °F 51.8 °F 60% 30.01 in 10.0 mi Calm Calm - N/A   Mostly Cloudy
6:08 PM 64.4 °F 53.6 °F 68% 30.03 in 7.0 mi North 4.6 mph - N/A Rain Light Rain
6:55 PM 62.6 °F 55.4 °F 77% 30.03 in 10.0 mi Calm Calm - N/A   Overcast
7:50 PM 62.6 °F 57.2 °F 82% 30.04 in 10.0 mi Calm Calm - N/A   Overcast
8:40 PM 57.2 °F 57.2 °F 100% 30.06 in 10.0 mi SSW 4.6 mph - N/A   Overcast
9:00 PM 59.0 °F 59.0 °F 100% 30.07 in 10.0 mi South 4.6 mph - N/A   Overcast
9:20 PM 59.0 °F 59.0 °F 100% 30.07 in 10.0 mi SE 3.5 mph - N/A   Overcast
9:40 PM 59.0 °F 59.0 °F 100% 30.07 in 10.0 mi South 4.6 mph - N/A   Overcast
10:00 PM 55.4 °F 55.4 °F 100% 30.07 in 10.0 mi South 3.5 mph - N/A   Overcast
10:20 PM 55.4 °F 55.4 °F 100% 30.07 in 10.0 mi Calm Calm - N/A   Overcast
10:40 PM 55.4 °F 55.4 °F 100% 30.07 in 10.0 mi Calm Calm - N/A   Mostly Cloudy
11:00 PM 53.6 °F 53.6 °F 100% 30.07 in 7.0 mi Calm Calm - N/A   Scattered Clouds
11:20 PM 55.4 °F 55.4 °F 100% 30.08 in 10.0 mi SSE 3.5 mph - N/A   Scattered Clouds
11:40 PM 53.6 °F 53.6 °F 100% 30.08 in 4.0 mi Calm Calm - N/A   Clear